CW7427 Weather Reports


time (UTC)temp
F
wind
direction
speed
knots
gust
knots
rain 1hr
in
rain 24hr
in
rain mn
in
humidity
%
barometer
mb
20260831005712 68 21 0.0 0.9 0.00 0.00 0.00 62 1029.3
20260831005158 68 21 0.0 1.7 0.00 0.00 0.00 63 1029.4
20260831004652 67 22 0.0 1.7 0.00 0.00 0.00 64 1029.4
20260831004149 68 21 0.0 3.5 0.00 0.00 0.00 65 1029.4
20260831003633 67 21 0.0 3.5 0.00 0.00 0.00 63 1029.5
20260831003133 67 21 0.0 0.0 0.00 0.00 0.00 66 1029.5
20260831002632 67 21 0.0 0.0 0.00 0.00 0.00 66 1029.5
20260831002120 66 21 0.0 0.0 0.00 0.00 0.00 66 1029.4
20260831001612 67 21 0.0 0.0 0.00 0.00 0.00 66 1029.5
20260831001101 66 21 0.0 0.0 0.00 0.00 0.00 68 1029.4
20260831000556 66 22 0.0 0.0 0.00 0.00 0.00 68 1029.4
20260831000050 65 22 0.0 0.0 0.00 0.00 0.00 68 1029.3
20260830235551 64 22 0.0 0.0 0.00 0.00 0.00 68 1029.3
20260830235044 64 21 0.0 0.0 0.00 0.00 0.00 72 1029.4
20260830234536 63 22 0.0 0.0 0.00 0.00 0.00 73 1029.3
20260830234034 63 22 0.0 0.0 0.00 0.00 0.00 72 1029.4
20260830233522 62 22 0.0 0.0 0.00 0.00 0.00 73 1029.4
20260830233008 61 22 0.0 0.0 0.00 0.00 0.00 72 1029.4
20260830232456 62 22 0.0 0.0 0.00 0.00 0.00 74 1029.4
20260830231954 61 22 0.0 0.0 0.00 0.00 0.00 75 1029.4
20260830231454 61 22 0.0 2.6 0.00 0.00 0.00 75 1029.4
20260830230953 60 22 0.0 2.6 0.00 0.00 0.00 76 1029.4
20260830230450 60 21 0.0 0.0 0.00 0.00 0.00 75 1029.4
20260830225942 60 21 0.0 0.0 0.00 0.00 0.00 78 1029.4
20260830225441 60 21 0.0 0.0 0.00 0.00 0.00 78 1029.5
20260830224928 59 21 0.0 0.0 0.00 0.00 0.00 76 1029.5
20260830224427 59 21 0.0 0.0 0.00 0.00 0.00 79 1029.5
20260830223926 59 21 0.0 0.0 0.00 0.00 0.00 79 1029.4
20260830223720 58 21 0.0 0.0 0.00 0.00 0.00 79 1029.4
20260830223617 58 21 0.0 0.0 0.00 0.00 0.00 81 1029.4
20260830222359 58 21 0.0 0.0 0.00 0.00 0.00 81 1029.3
20260830221844 57 21 0.0 0.0 0.00 0.00 0.00 82 1029.3
20260830221335 57 21 0.0 0.0 0.00 0.00 0.00 83 1029.4
20260830220830 57 21 0.0 0.0 0.00 0.00 0.00 84 1029.4
20260830220315 56 22 0.0 0.0 0.00 0.00 0.00 84 1029.4
20260830215811 56 21 0.0 0.0 0.00 0.00 0.00 87 1029.2
20260830215305 55 21 0.0 0.0 0.00 0.00 0.00 89 1029.2
20260830214806 55 21 0.0 0.0 0.00 0.00 0.00 91 1029.0
20260830214517 54 21 0.0 0.0 0.00 0.00 0.00 92 1028.9
20260830213754 53 21 0.0 0.0 0.00 0.00 0.00 94 1028.9
20260830213509 52 21 0.0 0.0 0.00 0.00 0.00 94 1028.9
20260830212733 52 21 0.0 0.0 0.00 0.00 0.00 95 1028.8
20260830212441 51 21 0.0 0.0 0.00 0.00 0.00 96 1028.7
20260830211925 50 21 0.0 0.0 0.00 0.00 0.00 96 1028.7
20260830211429 49 21 0.0 0.0 0.00 0.00 0.00 96 1028.7
20260830210659 49 21 0.0 0.0 0.00 0.00 0.00 96 1028.7
20260830210154 48 21 0.0 0.0 0.00 0.00 0.00 96 1028.7
20260830205855 47 21 0.0 0.0 0.00 0.00 0.00 96 1028.5
20260830205119 47 21 0.0 0.0 0.00 0.00 0.00 95 1028.4
20260830204838 47 21 0.0 0.0 0.00 0.00 0.00 95 1028.3
20260830204318 47 21 0.0 0.0 0.00 0.00 0.00 95 1028.1
20260830203550 47 21 0.0 0.0 0.00 0.00 0.00 96 1028.1
20260830203043 47 21 0.0 0.0 0.00 0.00 0.00 95 1028.2
20260830202736 47 21 0.0 0.0 0.00 0.00 0.00 95 1028.0
20260830202619 47 21 0.0 0.0 0.00 0.00 0.00 95 1028.2
20260830201521 46 21 0.0 0.0 0.00 0.00 0.00 95 1028.0
20260830201012 46 21 0.0 0.0 0.00 0.00 0.00 95 1028.0
20260830200503 46 21 0.0 0.0 0.00 0.00 0.00 95 1028.1
20260830200000 46 21 0.0 0.0 0.00 0.00 0.00 95 1028.0
20260830195459 46 21 0.0 0.0 0.00 0.00 0.00 95 1028.0
20260830195224 46 21 0.0 0.0 0.00 0.00 0.00 95 1027.9
20260830194459 46 21 0.0 0.0 0.00 0.00 0.00 95 1027.9
20260830193940 47 21 0.0 0.0 0.00 0.00 0.00 95 1027.9
20260830193423 47 21 0.0 0.0 0.00 0.00 0.00 95 1027.9
20260830192907 47 21 0.0 0.0 0.00 0.00 0.00 95 1027.7
20260830192627 47 21 0.0 0.0 0.00 0.00 0.00 95 1027.7
20260830191854 47 21 0.0 0.0 0.00 0.00 0.00 95 1027.7
20260830191345 47 21 0.0 0.0 0.00 0.00 0.00 95 1027.6
20260830190831 48 21 0.0 0.0 0.00 0.00 0.00 95 1027.6
20260830190333 48 21 0.0 0.0 0.00 0.00 0.00 95 1027.6
20260830190006 48 21 0.0 0.0 0.00 0.00 0.00 95 1027.4
20260830185850 48 21 0.0 0.0 0.00 0.00 0.00 95 1027.4
20260830184729 48 21 0.0 0.0 0.00 0.00 0.00 95 1027.5
20260830184221 48 21 0.0 0.0 0.00 0.00 0.00 95 1027.5
20260830183920 48 21 0.0 0.0 0.00 0.00 0.00 95 1027.5
20260830183140 48 21 0.0 0.0 0.00 0.00 0.00 95 1027.5
20260830182637 48 21 0.0 0.0 0.00 0.00 0.00 95 1027.5
20260830182103 48 21 0.0 0.0 0.00 0.00 0.00 95 1027.5
20260830181601 48 21 0.0 0.0 0.00 0.00 0.00 95 1027.7
20260830181059 48 21 0.0 0.0 0.00 0.00 0.00 95 1027.8
20260830180529 49 21 0.0 0.0 0.00 0.00 0.00 95 1027.8
20260830180013 49 21 0.0 0.0 0.00 0.00 0.00 95 1027.8
20260830175506 49 21 0.0 0.0 0.00 0.00 0.00 95 1027.8
20260830175002 49 21 0.0 0.0 0.00 0.00 0.00 95 1027.7
20260830174452 49 21 0.0 0.0 0.00 0.00 0.00 95 1027.7
20260830173952 48 21 0.0 0.0 0.00 0.00 0.00 95 1027.8
20260830173437 49 21 0.0 0.0 0.00 0.00 0.00 95 1027.8
20260830172937 49 21 0.0 0.0 0.00 0.00 0.00 95 1027.8
20260830172436 49 21 0.0 0.0 0.00 0.00 0.00 95 1027.8
20260830172130 49 21 0.0 0.0 0.00 0.00 0.00 95 1027.8
20260830171356 48 21 0.0 0.0 0.00 0.00 0.00 95 1027.8
20260830170844 48 21 0.0 0.0 0.00 0.00 0.00 94 1027.9
20260830170538 49 21 0.0 0.0 0.00 0.00 0.00 94 1028.0
20260830165809 49 21 0.0 0.0 0.00 0.00 0.00 95 1028.1
20260830165305 49 21 0.0 0.0 0.00 0.00 0.00 94 1028.1
20260830164749 49 21 0.0 0.0 0.00 0.00 0.00 95 1028.1
20260830164234 49 21 0.0 0.0 0.00 0.00 0.00 94 1028.0
20260830163926 49 21 0.0 0.0 0.00 0.00 0.00 95 1028.0
20260830163201 49 21 0.0 0.0 0.00 0.00 0.00 94 1027.9
20260830162653 49 21 0.0 0.0 0.00 0.00 0.00 94 1027.9
20260830162149 49 21 0.0 0.0 0.00 0.00 0.00 95 1027.9
20260830161637 49 21 0.0 0.0 0.00 0.00 0.00 95 1028.0
20260830161126 49 21 0.0 0.0 0.00 0.00 0.00 95 1028.0
20260830160852 49 21 0.0 0.0 0.00 0.00 0.00 95 1028.0
20260830160121 49 21 0.0 0.0 0.00 0.00 0.00 94 1028.0
20260830155603 49 21 0.0 0.0 0.00 0.00 0.00 94 1028.0
20260830155307 49 21 0.0 0.0 0.00 0.00 0.00 94 1028.1
20260830154500 49 21 0.0 0.0 0.00 0.00 0.00 94 1028.0
20260830153934 49 21 0.0 0.0 0.00 0.00 0.00 94 1028.1
20260830153425 49 21 0.0 0.0 0.00 0.00 0.00 94 1028.2
20260830153131 49 21 0.0 0.0 0.00 0.00 0.00 94 1028.2
20260830152402 49 21 0.0 0.0 0.00 0.00 0.00 94 1028.1
20260830151902 49 21 0.0 0.0 0.00 0.00 0.00 93 1028.1
20260830151357 49 21 0.0 0.0 0.00 0.00 0.00 93 1028.1
20260830151115 49 21 0.0 0.0 0.00 0.00 0.00 93 1028.1
20260830150344 49 21 0.0 0.0 0.00 0.00 0.00 93 1028.1
20260830145840 49 21 0.0 0.0 0.00 0.00 0.00 93 1028.2
20260830145324 49 21 0.0 0.0 0.00 0.00 0.00 93 1028.3
20260830144808 50 21 0.0 0.0 0.00 0.00 0.00 93 1028.3
20260830144455 49 21 0.0 0.0 0.00 0.00 0.00 93 1028.4
20260830143706 49 21 0.0 0.0 0.00 0.00 0.00 93 1028.3
20260830143418 50 21 0.0 0.0 0.00 0.00 0.00 93 1028.4
20260830142640 50 21 0.0 0.0 0.00 0.00 0.00 93 1028.4
20260830142134 50 21 0.0 0.0 0.00 0.00 0.00 93 1028.4
20260830141605 50 21 0.0 0.0 0.00 0.00 0.00 93 1028.5
20260830141101 50 21 0.0 0.0 0.00 0.00 0.00 92 1028.5
20260830140600 50 21 0.0 0.0 0.00 0.00 0.00 92 1028.4
20260830140320 50 21 0.0 0.0 0.00 0.00 0.00 92 1028.4
20260830135544 50 21 0.0 0.0 0.00 0.00 0.00 92 1028.4
20260830135034 51 21 0.0 0.0 0.00 0.00 0.00 92 1028.3
20260830134518 51 21 0.0 0.0 0.00 0.00 0.00 92 1028.4
20260830134506 51 21 0.0 0.0 0.00 0.00 0.00 91 1028.5
20260830133509 51 21 0.0 0.0 0.00 0.00 0.00 92 1028.5
20260830133004 51 21 0.0 0.0 0.00 0.00 0.00 91 1028.5
20260830132458 51 21 0.0 0.0 0.00 0.00 0.00 91 1028.5
20260830132228 51 21 0.0 0.0 0.00 0.00 0.00 91 1028.7
20260830131451 51 21 0.0 0.0 0.00 0.00 0.00 91 1028.5
20260830130942 51 21 0.0 0.0 0.00 0.00 0.00 91 1028.5
20260830130426 51 21 0.0 0.0 0.00 0.00 0.00 90 1028.5
20260830130333 52 21 0.0 0.0 0.00 0.00 0.00 90 1028.4
20260830125951 51 21 0.0 0.0 0.00 0.00 0.00 90 1028.5
20260830124857 52 21 0.0 0.0 0.00 0.00 0.00 89 1028.3
20260830124614 53 21 0.0 0.0 0.00 0.00 0.00 89 1028.3
20260830124102 53 21 0.0 0.0 0.00 0.00 0.00 89 1028.2
20260830123311 53 21 0.0 0.0 0.00 0.00 0.00 89 1028.2
20260830122808 53 21 0.0 0.0 0.00 0.00 0.00 89 1028.3
20260830122228 53 21 0.0 0.0 0.00 0.00 0.00 89 1028.2
20260830121704 53 21 0.0 0.0 0.00 0.00 0.00 90 1028.2
20260830121206 53 21 0.0 0.0 0.00 0.00 0.00 90 1028.2
20260830120917 53 21 0.0 0.0 0.00 0.00 0.00 90 1028.3
20260830120146 53 21 0.0 0.0 0.00 0.00 0.00 90 1028.3
20260830115854 53 21 0.0 0.0 0.00 0.00 0.00 90 1028.3
20260830115340 53 21 0.0 0.0 0.00 0.00 0.00 90 1028.4
20260830114622 53 21 0.0 0.0 0.00 0.00 0.00 90 1028.2
20260830114113 53 21 0.0 0.0 0.00 0.00 0.00 90 1028.3
20260830113614 53 21 0.0 0.0 0.00 0.00 0.00 90 1028.2
20260830113109 53 21 0.0 0.0 0.00 0.00 0.00 90 1028.1
20260830112609 53 21 0.0 0.0 0.00 0.00 0.00 89 1028.1
20260830112107 53 21 0.0 0.0 0.00 0.00 0.00 89 1028.1
20260830111606 53 21 0.0 0.0 0.00 0.00 0.00 89 1028.1
20260830111038 54 21 0.0 0.0 0.00 0.00 0.00 88 1027.9
20260830110523 54 21 0.0 0.0 0.00 0.00 0.00 87 1027.9
20260830105957 54 21 0.0 0.0 0.00 0.00 0.00 87 1028.0
20260830105438 55 21 0.0 0.0 0.00 0.00 0.00 86 1028.1
20260830104938 55 21 0.0 0.0 0.00 0.00 0.00 85 1028.1
20260830104404 56 21 0.0 0.0 0.00 0.00 0.00 84 1028.1
20260830103906 56 21 0.0 0.0 0.00 0.00 0.00 83 1028.0
20260830103839 56 21 0.0 0.0 0.00 0.00 0.00 83 1027.9
20260830103114 56 21 0.0 0.0 0.00 0.00 0.00 83 1027.9
20260830102346 56 21 0.0 0.0 0.00 0.00 0.00 84 1027.9
20260830101843 56 21 0.0 0.0 0.00 0.00 0.00 84 1027.9
20260830101340 57 21 0.0 0.0 0.00 0.00 0.00 83 1027.8
20260830100831 58 21 0.0 0.0 0.00 0.00 0.00 81 1027.7
20260830100327 58 21 0.0 0.0 0.00 0.00 0.00 81 1027.8
20260830095824 58 21 0.0 0.0 0.00 0.00 0.00 83 1027.6
20260830095755 58 21 0.0 0.0 0.00 0.00 0.00 84 1027.6
20260830094758 57 21 0.0 0.0 0.00 0.00 0.00 85 1027.5
20260830094257 57 21 0.0 0.0 0.00 0.00 0.00 86 1027.5
20260830093716 57 21 0.0 0.0 0.00 0.00 0.00 84 1027.5
20260830093148 57 21 0.0 0.0 0.00 0.00 0.00 83 1027.5
20260830092647 58 21 0.0 0.0 0.00 0.00 0.00 83 1027.5
20260830092114 58 21 0.0 0.0 0.00 0.00 0.00 83 1027.5
20260830091607 58 21 0.0 0.0 0.00 0.00 0.00 83 1027.5
20260830091103 58 21 0.0 0.0 0.00 0.00 0.00 82 1027.5
20260830090553 58 21 0.0 0.0 0.00 0.00 0.00 81 1027.4
20260830090043 59 21 0.0 0.0 0.00 0.00 0.00 81 1027.5
20260830085541 59 21 0.0 0.0 0.00 0.00 0.00 81 1027.5
20260830085033 59 21 0.0 0.0 0.00 0.00 0.00 80 1027.5
20260830084524 59 21 0.0 0.0 0.00 0.00 0.00 80 1027.5
20260830084228 59 21 0.0 0.0 0.00 0.00 0.00 79 1027.4
20260830083457 60 21 0.0 0.0 0.00 0.00 0.00 78 1027.3
20260830082951 60 21 0.0 0.0 0.00 0.00 0.00 78 1027.3
20260830082447 60 21 0.0 0.0 0.00 0.00 0.00 76 1027.2
20260830081941 61 21 0.0 0.0 0.00 0.00 0.00 76 1027.1
20260830081425 61 21 0.0 0.0 0.00 0.00 0.00 75 1027.0
20260830080909 62 21 0.0 0.0 0.00 0.00 0.00 74 1027.0
20260830080401 62 21 0.0 0.0 0.00 0.00 0.00 73 1027.0
20260830075855 63 21 0.0 0.0 0.00 0.00 0.00 71 1026.9
20260830075622 63 21 0.0 0.0 0.00 0.00 0.00 70 1026.8
20260830074853 64 21 0.0 0.0 0.00 0.00 0.00 69 1026.7
20260830074347 64 21 0.0 0.0 0.00 0.00 0.00 68 1026.6
20260830073823 65 21 0.0 0.9 0.00 0.00 0.00 67 1026.6
20260830073325 65 21 0.0 2.6 0.00 0.00 0.00 66 1026.6
20260830072809 66 21 0.0 2.6 0.00 0.00 0.00 65 1026.7
20260830072308 66 21 0.9 3.5 0.00 0.00 0.00 64 1026.7
20260830072000 67 21 0.9 3.5 0.00 0.00 0.00 64 1026.7
20260830071233 67 21 0.9 4.3 0.00 0.00 0.00 63 1026.6
20260830070720 67 20 0.9 4.3 0.00 0.00 0.00 62 1026.6
20260830070210 67 19 0.9 3.5 0.00 0.00 0.00 61 1026.6
20260830065708 68 82 0.0 3.5 0.00 0.00 0.00 60 1026.4
20260830065203 68 82 0.0 5.2 0.00 0.00 0.00 59 1026.6
20260830064655 68 82 0.9 5.2 0.00 0.00 0.00 58 1026.6
20260830064145 68 53 0.9 4.3 0.00 0.00 0.00 56 1026.6
20260830063638 68 53 0.9 4.3 0.00 0.00 0.00 56 1026.6
20260830063131 69 54 0.9 4.3 0.00 0.00 0.00 53 1026.6
20260830062620 69 63 0.9 4.3 0.00 0.00 0.00 52 1026.7
20260830062111 69 69 0.9 4.3 0.00 0.00 0.00 51 1026.7
20260830061825 69 69 0.0 4.3 0.00 0.00 0.00 50 1026.7
20260830061056 69 69 0.9 4.3 0.00 0.00 0.00 51 1026.7
20260830060549 69 65 0.9 4.3 0.00 0.00 0.00 49 1026.6
20260830060042 69 65 0.9 4.3 0.00 0.00 0.00 52 1026.7
20260830055541 70 69 0.9 4.3 0.00 0.00 0.00 51 1026.7
20260830055300 70 69 0.0 3.5 0.00 0.00 0.00 51 1026.7
20260830054519 70 69 0.0 1.7 0.00 0.00 0.00 50 1026.8
20260830054010 70 69 0.0 3.5 0.00 0.00 0.00 48 1026.8
20260830053504 70 69 0.9 4.3 0.00 0.00 0.00 48 1026.8
20260830052951 70 69 0.9 4.3 0.00 0.00 0.00 46 1026.8
20260830052446 70 63 0.9 4.3 0.00 0.00 0.00 42 1026.9
20260830051935 71 63 0.0 3.5 0.00 0.00 0.00 39 1026.8
20260830051643 71 63 0.9 4.3 0.00 0.00 0.00 40 1026.9
20260830050913 71 63 0.9 5.2 0.00 0.00 0.00 38 1026.9
20260830050357 71 143 0.9 4.3 0.00 0.00 0.00 37 1026.9
20260830045846 71 104 0.9 4.3 0.00 0.00 0.00 39 1026.9
20260830045329 71 102 0.9 5.2 0.00 0.00 0.00 39 1026.9
20260830044817 71 102 0.9 5.2 0.00 0.00 0.00 39 1026.9
20260830044531 72 80 0.9 3.5 0.00 0.00 0.00 39 1027.0
20260830043805 72 102 0.9 3.5 0.00 0.00 0.00 40 1027.0
20260830043305 72 102 0.9 4.3 0.00 0.00 0.00 42 1026.9
20260830042800 71 102 0.9 4.3 0.00 0.00 0.00 42 1026.9
20260830042254 71 103 0.9 4.3 0.00 0.00 0.00 42 1026.9
20260830041752 72 103 0.9 5.2 0.00 0.00 0.00 43 1026.9
20260830041245 72 102 0.9 5.2 0.00 0.00 0.00 43 1026.9
20260830040742 72 68 0.9 6.1 0.00 0.00 0.00 44 1027.0
20260830040735 71 34 0.9 6.1 0.00 0.00 0.00 43 1027.0
20260830035733 71 49 0.0 1.7 0.00 0.00 0.00 45 1027.0
20260830035219 71 49 0.9 5.2 0.00 0.00 0.00 45 1027.2
20260830034713 72 49 0.9 5.2 0.00 0.00 0.00 45 1027.2
20260830034206 71 46 0.9 4.3 0.00 0.00 0.00 45 1027.2
20260830033656 71 72 0.9 4.3 0.00 0.00 0.00 46 1027.2
20260830033151 72 73 0.9 4.3 0.00 0.00 0.00 45 1027.2
20260830032902 71 72 0.9 3.5 0.00 0.00 0.00 48 1027.2
20260830032131 71 72 0.9 4.3 0.00 0.00 0.00 49 1027.3
20260830031620 71 72 0.0 4.3 0.00 0.00 0.00 46 1027.3
20260830031113 71 72 0.0 1.7 0.00 0.00 0.00 50 1027.4
20260830030608 70 72 0.0 0.9 0.00 0.00 0.00 49 1027.5
20260830030325 71 72 0.9 4.3 0.00 0.00 0.00 49 1027.6
20260830025548 70 72 0.9 4.3 0.00 0.00 0.00 47 1027.7
20260830025039 71 71 0.9 4.3 0.00 0.00 0.00 46 1027.6
20260830024533 71 71 0.9 3.5 0.00 0.00 0.00 49 1027.7
20260830024032 70 71 0.9 3.5 0.00 0.00 0.00 49 1027.7
20260830023512 70 49 0.0 1.7 0.00 0.00 0.00 49 1027.8
20260830023444 70 49 0.0 2.6 0.00 0.00 0.00 48 1027.9
20260830022453 70 49 0.0 2.6 0.00 0.00 0.00 50 1027.8
20260830021942 69 49 0.0 4.3 0.00 0.00 0.00 51 1027.9
20260830021436 70 49 0.9 6.1 0.00 0.00 0.00 51 1028.1
20260830021158 70 49 0.9 6.1 0.00 0.00 0.00 53 1028.1
20260830020420 69 80 0.9 5.2 0.00 0.00 0.00 53 1028.1
20260830015912 70 80 0.9 5.2 0.00 0.00 0.00 51 1028.2
20260830015405 70 27 0.0 5.2 0.00 0.00 0.00 50 1028.2
20260830014856 68 19 0.9 5.2 0.00 0.00 0.00 57 1028.4
20260830014348 68 19 0.9 5.2 0.00 0.00 0.00 53 1028.4
20260830013842 69 0 0.0 1.7 0.00 0.00 0.00 57 1028.5
20260830013340 69 355 0.0 1.7 0.00 0.00 0.00 58 1028.4
20260830013103 69 355 0.0 1.7 0.00 0.00 0.00 58 1028.5
20260830012326 68 21 0.0 1.7 0.00 0.00 0.00 60 1028.6
20260830011818 68 21 0.0 1.7 0.00 0.00 0.00 62 1028.6
20260830011300 67 21 0.0 1.7 0.00 0.00 0.00 65 1028.6
20260830010754 66 21 0.0 1.7 0.00 0.00 0.00 65 1028.6